Temperature
14 14 14 14 13 13 13 13 13 13 12 12 12 12 12 12 12 11 11 11 11 11 10 10 9 9 9 8 8 8 8 8 8 8 8 8 8 8 7 7 7 8 8
14 14 14 13 13 13 13 13 12 12 12 12 12 12 12 12 11 11 11 11 10 10 10 9 9 9 8 8 8 8 8 8 7 7 7 7 7 7 7 7 7 7 7
13 13 13 13 13 13 12 12 12 12 12 12 12 12 11 11 11 11 10 10 10 10 9 9 9 8 8 8 8 7 7 7 7 7 7 7 7 6 6 7 7 7 7
13 13 13 13 13 12 12 12 12 12 12 12 11 11 11 11 10 10 10 10 9 9 9 9 8 8 8 8 7 7 7 7 7 6 6 6 6 6 6 6 6 6 6
13 13 13 12 12 12 12 12 12 12 11 11 11 11 11 10 10 10 9 9 9 9 8 8 8 8 7 7 7 7 6 6 6 6 6 6 6 6 6 6 6 6 6
12 12 12 12 12 12 12 11 11 11 11 11 11 11 10 10 10 9 9 9 8 8 8 8 7 7 7 7 7 6 6 6 6 5 5 5 5 5 5 5 6 6 6
12 12 12 12 12 12 11 11 11 11 11 10 10 10 10 10 9 9 9 8 8 8 7 7 7 7 6 6 6 6 6 6 5 5 5 5 5 5 5 5 5 5 5
12 12 12 12 11 11 11 11 11 10 10 10 10 9 9 9 9 9 8 8 7 7 7 7 6 6 6 6 6 6 5 5 5 5 5 5 4 4 4 4 5 5 5
11 11 11 11 11 11 11 11 10 10 10 9 9 8 8 8 8 8 8 7 7 7 6 6 6 6 5 5 5 5 5 5 5 4 4 4 4 4 4 4 4 4 4
11 11 11 11 11 10 10 10 10 9 9 9 8 8 7 7 6 6 7 7 7 6 6 5 5 5 5 5 5 4 4 4 4 4 4 4 4 3 3 3 4 4 4
11 11 11 10 10 10 10 9 9 9 9 8 8 8 7 6 6 5 5 6 6 6 5 5 5 5 4 4 4 4 4 4 3 3 3 3 3 3 3 3 3 3 3
10 10 10 10 10 10 9 9 9 8 8 8 7 7 6 6 5 5 4 5 5 5 5 5 4 4 4 4 4 3 3 3 3 3 3 3 3 2 2 3 3 3 3
10 10 10 10 9 9 9 9 8 8 8 7 7 7 6 5 5 5 4 4 4 4 5 5 4 4 4 3 3 3 3 3 3 3 3 2 2 2 2 2 2 2 2
10 10 9 9 9 9 8 8 8 8 7 7 6 6 6 5 5 4 4 4 3 3 4 4 4 4 3 3 3 3 3 3 3 2 2 2 2 2 2 2 2 2 2
9 9 9 9 8 8 8 8 7 7 7 6 6 6 5 5 4 4 3 3 3 2 3 3 3 3 3 3 3 3 3 3 2 2 2 2 2 1 1 1 1 1 1
9 8 8 8 8 7 7 7 7 7 6 6 6 5 5 4 4 3 3 3 2 2 2 2 3 3 3 3 2 2 2 2 2 2 2 2 1 1 1 1 1 1 1
8 8 8 7 7 7 7 7 6 6 6 5 5 5 4 4 4 3 3 3 2 2 2 2 2 2 2 2 3 2 2 2 2 2 2 1 1 1 1 1 1 1 1
8 7 7 7 7 6 6 6 6 5 5 5 4 4 4 4 3 3 3 3 2 2 2 2 2 2 2 2 2 2 2 2 2 2 1 1 1 1 0 0 0 0 0
7 7 6 6 6 6 6 5 5 5 4 4 4 4 3 3 3 3 2 2 2 2 2 2 2 2 2 2 2 2 2 2 1 1 1 0 0 0 0 0 0 0 -0
6 6 6 6 5 5 5 5 4 4 4 3 3 3 3 3 3 2 2 2 2 2 2 1 1 1 1 1 1 1 1 1 1 1 1 0 0 0 0 -0 -0 -0 -1
5 5 5 5 5 5 4 4 4 3 3 3 3 3 3 2 2 2 2 2 2 2 1 1 1 1 1 1 0 -0 -0 0 1 1 1 1 0 0 -0 -0 -0 -1 -1
5 4 4 4 4 4 4 3 3 3 3 3 2 2 2 2 2 2 2 2 1 1 1 1 0 0 0 -0 -1 -1 -1 -1 -1 -0 -0 0 0 -0 -0 -0 -1 -1 -1
4 4 4 4 4 4 3 3 2 2 2 2 2 2 2 2 1 1 1 1 1 1 1 0 0 -0 -0 -1 -1 -1 -1 -2 -1 -1 -1 -0 0 -0 -1 -1 -1 -1 -1
3 3 3 3 3 3 3 2 2 2 2 2 2 1 1 1 1 1 1 1 1 1 1 0 -0 -0 -1 -1 -2 -2 -2 -2 -1 -1 -1 -1 -1 -1 -1 -1 -1 -1 -1
3 3 2 2 2 2 2 2 2 2 1 1 1 1 1 1 1 1 1 1 1 1 0 0 -0 -1 -1 -1 -1 -2 -2 -2 -2 -1 -2 -2 -2 -2 -1 -1 -1 -1 -1
2 2 2 2 1 1 1 1 1 1 1 1 1 1 0 0 0 0 0 0 0 0 0 0 -0 -0 -1 -1 -1 -2 -2 -2 -3 -3 -2 -2 -2 -3 -2 -1 -1 -1 -2
Wind_Speed
7 7 7 8 8 8 8 7 7 7 7 7 7 7 7 7 8 8 9 10 11 11 11 11 12 12 12 12 13 13 14 14 15 15 16 16 16 17 17 16 16 17 17
9 7 7 7 7 7 7 7 6 6 5 5 5 6 6 6 7 7 8 9 10 11 11 12 12 12 13 13 13 14 15 15 16 16 16 17 17 17 17 17 17 17 18
10 8 6 5 5 7 8 7 6 6 4 4 3 4 4 5 6 6 7 8 9 10 11 12 12 13 13 14 14 15 15 16 16 17 17 17 18 18 18 18 18 18 19
10 9 6 5 6 7 7 5 3 3 3 2 2 2 3 3 4 5 6 7 8 8 9 12 13 13 14 14 15 15 16 16 17 17 18 18 18 19 19 19 19 19 19
9 9 6 5 6 6 5 3 3 2 2 2 1 2 2 2 2 3 4 6 7 7 8 10 12 13 14 14 15 16 17 17 18 18 19 19 19 19 19 19 20 20 20
8 8 7 6 6 5 3 3 3 3 2 1 1 2 2 2 2 2 2 4 6 7 8 9 10 11 13 15 16 17 17 18 19 19 19 20 20 20 20 20 20 21 21
8 8 6 5 5 3 3 3 2 3 3 2 2 3 3 2 1 1 2 2 4 6 7 8 9 10 11 14 16 17 18 19 20 20 20 21 21 21 21 21 21 21 21
7 7 6 4 4 3 4 3 3 2 2 3 2 2 3 4 3 2 2 1 3 5 5 7 9 9 10 11 14 17 18 20 20 21 21 21 21 22 21 21 21 22 22
7 7 6 5 4 4 3 2 3 3 2 1 2 2 1 2 4 3 2 2 2 3 4 6 7 9 10 11 12 15 19 20 20 21 21 22 22 22 22 22 22 22 22
6 6 6 5 4 3 3 2 2 2 3 1 1 2 1 2 1 4 3 2 3 4 4 6 7 8 9 10 13 17 19 20 21 21 22 22 22 22 22 22 22 23 22
5 6 6 5 4 3 3 3 3 2 2 2 1 1 1 1 0 1 4 5 4 3 4 5 5 7 9 10 12 16 19 20 21 21 22 22 22 22 22 22 22 22 22
3 4 5 5 4 3 3 3 3 3 2 2 2 1 1 1 1 1 3 6 6 5 5 4 4 6 8 11 13 17 19 20 21 21 21 22 22 22 22 22 22 22 22
3 3 4 4 3 3 3 3 3 3 2 2 2 1 1 1 1 1 2 4 6 6 4 3 4 6 9 12 13 18 18 20 20 21 21 21 21 21 21 21 21 21 22
4 4 5 4 4 4 4 3 2 2 2 2 2 1 1 1 1 1 1 2 5 5 4 5 3 5 9 12 15 18 16 19 20 20 21 21 20 20 20 20 20 21 21
4 5 5 4 4 4 4 3 2 2 2 2 2 1 1 1 1 1 1 2 2 6 8 5 4 5 10 12 15 15 15 19 20 20 20 20 20 20 19 19 19 20 20
5 5 5 4 4 3 3 3 2 2 2 2 1 1 1 1 1 2 2 2 3 4 6 6 6 7 10 12 16 15 15 19 19 19 20 20 20 19 19 18 19 19 20
5 5 5 4 4 3 3 3 2 2 2 1 1 1 2 2 2 2 2 2 3 3 7 8 6 7 8 9 12 13 14 13 14 18 20 19 19 19 18 18 18 19 19
5 5 5 4 4 3 3 3 3 2 2 2 2 2 2 2 2 3 3 3 4 4 5 9 8 7 8 9 10 10 12 13 13 17 19 19 19 18 18 18 18 18 18
4 4 4 4 4 3 3 3 3 3 3 3 2 3 3 2 3 3 4 4 4 4 5 6 8 7 7 7 8 9 10 9 12 14 17 17 17 18 18 18 17 17 18
4 4 4 4 4 3 3 3 3 3 2 2 2 3 3 3 4 4 4 4 4 5 5 6 7 7 7 7 6 8 10 8 9 11 13 15 17 17 17 17 17 17 18
3 3 3 3 3 3 3 3 3 3 2 2 2 3 3 4 5 5 4 4 4 4 5 6 7 7 7 8 8 7 9 10 9 6 7 9 10 10 12 15 16 16 17
3 2 2 2 2 2 3 3 2 2 2 2 3 3 4 4 6 7 8 7 6 5 5 5 6 7 9 8 7 7 8 9 8 5 7 10 7 7 9 10 15 16 16
3 2 2 1 1 2 2 3 2 1 2 2 3 3 3 4 5 5 7 8 7 8 7 5 6 7 8 8 8 8 8 8 9 8 8 8 6 7 9 12 16 16 16
2 1 1 0 0 1 1 2 2 1 2 2 3 3 3 4 5 5 4 5 5 5 7 5 5 7 7 7 6 7 8 9 8 6 4 5 6 7 9 9 14 16 17
2 1 1 1 0 1 2 2 1 1 1 2 2 3 3 4 7 7 4 5 6 6 7 8 9 9 10 11 9 5 6 7 8 6 3 4 5 7 6 5 10 16 17
2 2 2 1 0 1 2 2 1 1 1 2 2 3 5 6 8 7 3 4 6 6 6 7 7 8 8 8 9 5 4 6 6 5 3 4 5 6 5 4 5 10 12
Wind_Direction
110 102 94 89 87 92 91 86 83 80 74 68 67 68 62 59 58 53 43 37 33 27 21 16 12 7 3 0 358 355 351 348 345 344 341 338 335 332 330 327 324 322 320
120 112 101 93 89 94 96 95 92 88 79 73 63 59 61 61 59 54 47 39 31 26 21 15 10 6 1 357 355 351 348 346 342 340 338 336 333 331 329 326 324 321 319
125 119 108 99 95 99 96 89 83 81 74 65 55 51 57 59 59 54 50 42 32 22 19 13 8 4 359 355 352 349 346 344 341 338 336 335 333 330 328 326 324 321 318
129 122 112 105 107 103 96 92 79 65 57 48 31 21 40 50 54 53 51 42 31 21 14 10 5 2 358 353 350 348 345 342 340 337 334 332 330 328 327 325 323 321 318
131 126 119 115 114 103 92 93 70 76 64 35 22 14 13 30 31 42 43 35 27 19 13 6 3 359 357 353 350 346 343 341 339 336 334 331 328 327 325 324 323 321 319
132 127 119 116 115 103 84 76 76 56 63 29 22 2 338 336 10 28 29 29 20 11 7 4 2 356 354 351 347 344 341 339 337 334 332 330 328 326 325 323 323 321 320
136 129 122 117 116 114 113 105 86 66 38 18 36 2 345 333 334 345 10 15 5 358 0 0 356 351 350 347 345 343 340 338 336 333 330 328 327 325 324 323 322 321 320
139 137 128 131 126 117 109 102 96 90 50 37 64 44 348 337 339 325 326 322 338 349 350 349 347 346 346 345 339 340 338 335 334 332 329 327 326 323 323 322 321 321 319
137 136 136 134 131 131 141 137 121 116 114 32 46 97 103 278 309 311 303 308 324 329 331 335 337 337 340 341 337 335 334 334 332 331 329 327 325 323 323 322 322 321 320
138 139 138 134 133 131 139 144 122 121 129 124 43 50 131 185 278 312 309 309 319 312 312 321 324 326 330 334 332 331 332 332 331 330 329 327 325 323 322 322 321 320 319
132 136 139 135 131 129 136 130 126 121 130 144 143 128 64 32 159 247 299 313 317 296 301 303 310 320 323 330 331 329 331 330 330 329 328 327 325 323 322 321 321 320 320
127 129 135 135 137 131 134 141 138 134 144 138 141 148 160 183 272 254 282 304 309 305 303 298 304 317 324 330 328 328 329 328 327 327 327 326 324 323 322 322 321 321 321
170 171 148 144 139 136 137 130 137 145 153 153 166 187 196 220 226 242 276 298 305 307 304 295 295 311 326 328 327 328 328 327 327 326 326 325 324 322 322 322 322 322 321
177 164 155 149 141 137 134 126 131 153 143 161 178 188 212 250 242 238 252 296 315 310 305 296 300 301 324 325 325 328 326 324 325 325 325 324 323 322 322 322 322 321 321
152 151 149 148 144 139 137 136 144 166 155 172 194 202 232 258 271 269 263 263 283 308 308 298 304 309 320 322 323 324 322 321 324 325 325 323 323 323 322 322 322 322 322
152 150 153 152 150 144 142 143 154 159 165 195 194 198 244 267 282 278 268 272 259 268 288 293 296 305 313 318 320 323 320 323 323 324 325 323 323 322 322 322 322 322 322
157 162 164 161 162 160 155 156 177 178 184 210 219 218 254 261 272 279 277 274 268 266 283 297 297 304 306 313 320 322 323 322 322 323 326 325 325 323 323 322 323 323 323
163 165 163 163 168 170 171 176 189 195 197 220 235 237 260 276 276 280 273 272 273 269 278 296 305 310 309 313 315 318 324 324 321 322 327 326 327 327 325 325 325 325 325
157 158 160 171 179 182 186 191 195 203 209 221 231 242 255 259 273 277 277 277 282 289 285 292 304 308 309 317 321 320 318 318 323 324 326 326 328 327 327 326 326 326 326
153 159 170 176 180 185 189 191 198 204 215 232 240 249 259 253 261 271 278 278 289 295 298 301 306 311 312 318 325 327 327 326 323 323 325 325 325 326 327 327 326 327 327
142 145 158 170 173 183 195 199 198 200 210 243 263 265 273 289 290 288 290 288 291 295 306 308 310 316 318 328 329 326 323 321 317 314 322 321 320 320 322 322 324 326 328
118 126 142 167 183 201 216 213 204 196 207 239 269 283 291 288 299 305 303 300 299 301 302 301 305 311 310 315 317 320 322 327 323 326 326 314 317 314 318 319 323 327 329
115 129 136 154 203 232 226 226 232 189 218 244 261 280 298 304 310 296 302 309 307 307 301 297 297 299 305 310 315 317 317 314 305 310 317 308 313 310 316 321 329 333 332
123 133 142 165 235 267 263 254 253 201 230 249 258 259 275 289 297 305 306 312 307 302 301 300 287 293 298 303 301 301 302 305 299 299 305 300 313 313 316 316 329 339 339
112 113 136 128 148 304 308 275 275 221 247 266 274 281 292 287 301 320 321 313 314 314 318 315 312 312 315 318 322 324 326 325 319 315 311 307 310 315 311 307 325 337 340
115 96 61 43 15 310 335 345 324 226 274 299 305 305 308 312 316 327 321 310 311 314 323 328 325 323 321 320 326 325 313 315 315 313 321 324 316 328 320 309 321 331 334
Height
1548 1549 1550 1551 1551 1552 1552 1553 1552 1552 1552 1552 1551 1551 1550 1549 1548 1547 1546 1545 1543 1542 1540 1538 1536 1534 1532 1530 1528 1526 1523 1521 1519 1516 1514 1512 1509 1507 1505 1503 1500 1498 1496
1548 1549 1550 1550 1551 1551 1552 1552 1552 1552 1551 1551 1550 1550 1549 1549 1548 1546 1545 1544 1542 1541 1539 1537 1535 1532 1530 1528 1526 1524 1521 1519 1516 1514 1511 1509 1506 1504 1502 1499 1497 1494 1492
1547 1548 1549 1550 1551 1551 1551 1551 1551 1551 1550 1550 1549 1549 1548 1547 1547 1545 1544 1543 1541 1539 1537 1535 1533 1531 1528 1526 1524 1521 1519 1516 1514 1511 1508 1506 1503 1501 1498 1495 1493 1490 1488
1546 1547 1548 1549 1550 1550 1550 1550 1550 1550 1549 1549 1548 1548 1547 1546 1545 1544 1543 1542 1540 1538 1536 1534 1531 1529 1526 1524 1521 1519 1516 1513 1511 1508 1505 1502 1500 1497 1494 1492 1489 1486 1484
1545 1546 1547 1548 1549 1549 1549 1549 1549 1549 1548 1548 1547 1546 1545 1544 1544 1543 1542 1540 1538 1536 1534 1532 1530 1527 1524 1522 1519 1516 1513 1511 1508 1505 1502 1499 1496 1493 1491 1488 1485 1482 1479
1544 1545 1546 1547 1547 1548 1548 1548 1547 1547 1547 1546 1545 1545 1544 1543 1542 1541 1540 1538 1537 1535 1532 1530 1528 1525 1522 1519 1516 1513 1510 1507 1504 1501 1498 1495 1492 1489 1487 1484 1481 1478 1475
1543 1544 1545 1545 1546 1546 1546 1546 1546 1545 1545 1544 1543 1542 1542 1541 1540 1539 1538 1536 1535 1533 1530 1528 1525 1522 1520 1517 1514 1510 1507 1504 1501 1498 1495 1492 1489 1486 1482 1479 1476 1473 1470
1541 1542 1543 1544 1544 1545 1545 1545 1544 1544 1543 1543 1542 1541 1539 1539 1537 1536 1535 1534 1532 1531 1528 1526 1523 1520 1517 1514 1510 1507 1504 1500 1497 1494 1491 1487 1484 1481 1478 1475 1472 1469 1465
1539 1540 1541 1542 1543 1543 1543 1543 1543 1542 1542 1541 1541 1541 1539 1537 1534 1533 1532 1531 1530 1528 1526 1523 1520 1517 1514 1511 1507 1504 1500 1497 1493 1490 1487 1483 1480 1477 1474 1471 1467 1464 1461
1537 1538 1539 1540 1541 1541 1541 1541 1541 1540 1540 1539 1539 1539 1539 1537 1535 1530 1529 1528 1527 1525 1522 1520 1517 1514 1511 1508 1504 1501 1497 1493 1489 1486 1482 1479 1475 1472 1469 1466 1462 1459 1456
1535 1536 1537 1538 1539 1539 1539 1539 1539 1539 1538 1538 1537 1536 1536 1535 1533 1531 1526 1524 1523 1521 1519 1517 1514 1511 1508 1505 1501 1497 1493 1489 1485 1482 1478 1474 1470 1467 1464 1460 1457 1454 1450
1532 1534 1535 1536 1536 1537 1537 1537 1537 1537 1536 1536 1535 1534 1533 1533 1531 1529 1526 1521 1519 1517 1516 1514 1511 1508 1505 1501 1498 1494 1490 1486 1481 1477 1473 1469 1465 1462 1459 1455 1452 1449 1446
1529 1531 1532 1533 1534 1534 1535 1535 1535 1534 1534 1533 1533 1532 1531 1530 1529 1528 1525 1520 1516 1514 1512 1510 1508 1505 1502 1498 1494 1490 1486 1482 1477 1473 1469 1465 1461 1457 1454 1450 1447 1444 1440
1527 1528 1529 1530 1531 1531 1532 1532 1532 1532 1531 1531 1530 1529 1528 1528 1527 1525 1523 1520 1514 1510 1509 1507 1504 1502 1499 1495 1491 1487 1482 1478 1473 1469 1464 1460 1456 1452 1449 1445 1442 1439 1435
1524 1525 1526 1527 1528 1528 1529 1529 1529 1529 1528 1528 1527 1527 1526 1525 1524 1523 1521 1519 1516 1510 1505 1503 1501 1498 1495 1491 1487 1483 1478 1474 1469 1464 1460 1456 1452 1448 1444 1441 1437 1434 1430
1521 1522 1523 1524 1524 1525 1525 1526 1526 1525 1525 1525 1524 1524 1523 1522 1521 1519 1518 1516 1514 1511 1505 1501 1498 1495 1492 1488 1484 1480 1475 1470 1465 1461 1456 1451 1447 1443 1440 1436 1432 1429 1426
1517 1518 1519 1520 1521 1521 1522 1522 1522 1522 1522 1521 1521 1520 1520 1519 1517 1516 1514 1513 1511 1508 1503 1498 1496 1492 1489 1484 1480 1476 1471 1466 1461 1457 1452 1447 1443 1439 1435 1432 1428 1424 1421
1513 1515 1516 1517 1517 1518 1518 1518 1518 1518 1518 1518 1517 1517 1516 1515 1514 1512 1511 1509 1507 1504 1500 1495 1491 1488 1485 1481 1476 1472 1467 1462 1458 1453 1448 1443 1439 1435 1431 1428 1424 1420 1417
1509 1511 1512 1513 1514 1514 1515 1515 1515 1515 1515 1515 1514 1514 1512 1511 1510 1509 1507 1505 1503 1500 1497 1493 1488 1485 1481 1477 1472 1468 1463 1459 1454 1449 1445 1440 1436 1432 1428 1424 1420 1416 1413
1505 1507 1508 1509 1510 1511 1511 1511 1511 1511 1511 1511 1511 1510 1509 1508 1506 1505 1503 1501 1499 1496 1493 1490 1485 1481 1478 1474 1469 1464 1458 1454 1450 1446 1441 1437 1433 1429 1424 1420 1416 1412 1409
1502 1503 1504 1506 1507 1507 1508 1508 1508 1508 1508 1508 1507 1506 1505 1504 1503 1502 1500 1498 1495 1492 1489 1486 1482 1478 1474 1470 1466 1461 1456 1451 1446 1443 1438 1434 1429 1425 1421 1416 1412 1408 1405
1498 1499 1501 1502 1503 1504 1504 1505 1505 1505 1504 1504 1503 1502 1502 1501 1499 1498 1496 1494 1492 1489 1486 1483 1479 1475 1471 1468 1463 1459 1455 1449 1443 1440 1435 1430 1427 1422 1417 1413 1409 1405 1402
1494 1496 1497 1499 1499 1500 1501 1501 1501 1501 1501 1500 1499 1499 1498 1497 1495 1494 1492 1490 1488 1486 1483 1480 1476 1473 1469 1465 1461 1457 1453 1448 1443 1439 1433 1427 1424 1419 1415 1411 1407 1403 1399
1491 1493 1494 1495 1496 1497 1497 1498 1498 1498 1497 1497 1496 1495 1494 1493 1491 1490 1488 1486 1484 1482 1479 1476 1473 1470 1467 1463 1460 1456 1451 1446 1442 1438 1433 1426 1421 1417 1413 1409 1405 1401 1397
1489 1490 1491 1492 1493 1493 1494 1494 1495 1494 1494 1493 1493 1492 1491 1489 1488 1487 1485 1482 1480 1478 1476 1473 1470 1467 1464 1461 1457 1453 1448 1443 1438 1434 1431 1426 1420 1415 1410 1407 1404 1400 1396
1486 1487 1488 1489 1490 1490 1491 1491 1491 1491 1490 1490 1489 1488 1487 1486 1485 1483 1481 1478 1475 1473 1471 1469 1466 1464 1461 1458 1455 1451 1447 1442 1437 1432 1429 1425 1420 1415 1408 1405 1402 1399 1394